Wetterdaten: Samstag, 12.06.2021
Datum Zeit Temp. Auen Feucht Auen Luftdruck Regen Richtung Richtung Windben
12.06.2021 00:00 15,9 C 85 % 1018,9 hPa 0,0 mm W 279 6,4 km/h (2 Bft)
12.06.2021 00:05 15,8 C 86 % 1018,9 hPa 0,0 mm W 262 8,0 km/h (2 Bft)
12.06.2021 00:10 15,8 C 86 % 1019,0 hPa 0,0 mm W 262 8,0 km/h (2 Bft)
12.06.2021 00:15 15,8 C 86 % 1019,0 hPa 0,2 mm W 269 8,0 km/h (2 Bft)
12.06.2021 00:20 15,7 C 86 % 1019,0 hPa 0,0 mm W 269 6,4 km/h (2 Bft)
12.06.2021 00:25 15,7 C 86 % 1019,1 hPa 0,0 mm W 269 6,4 km/h (2 Bft)
12.06.2021 00:30 15,6 C 86 % 1019,1 hPa 0,0 mm W 270 6,4 km/h (2 Bft)
12.06.2021 00:35 15,6 C 87 % 1019,0 hPa 0,0 mm W 270 6,4 km/h (2 Bft)
12.06.2021 00:40 15,5 C 87 % 1019,0 hPa 0,0 mm W 270 6,4 km/h (2 Bft)
12.06.2021 00:45 15,4 C 87 % 1019,0 hPa 0,0 mm W 270 4,8 km/h (1 Bft)
12.06.2021 00:50 15,4 C 86 % 1019,0 hPa 0,0 mm W 270 6,4 km/h (2 Bft)
12.06.2021 00:55 15,3 C 86 % 1018,9 hPa 0,0 mm W 270 4,8 km/h (1 Bft)
12.06.2021 01:00 15,2 C 86 % 1018,9 hPa 0,0 mm W 270 4,8 km/h (1 Bft)
12.06.2021 01:05 15,2 C 87 % 1018,9 hPa 0,0 mm W 270 6,4 km/h (2 Bft)
12.06.2021 01:10 15,1 C 87 % 1018,9 hPa 0,0 mm W 269 6,4 km/h (2 Bft)
12.06.2021 01:15 15,1 C 87 % 1018,9 hPa 0,0 mm W 269 8,0 km/h (2 Bft)
12.06.2021 01:20 15,0 C 86 % 1018,8 hPa 0,0 mm W 271 8,0 km/h (2 Bft)
12.06.2021 01:25 14,9 C 87 % 1018,8 hPa 0,0 mm W 271 4,8 km/h (1 Bft)
12.06.2021 01:30 14,8 C 87 % 1018,9 hPa 0,0 mm W 271 1,6 km/h (1 Bft)
12.06.2021 01:35 14,8 C 87 % 1018,8 hPa 0,0 mm W 271 1,6 km/h (1 Bft)
12.06.2021 01:40 14,7 C 87 % 1018,7 hPa 0,0 mm W 271 8,0 km/h (2 Bft)
12.06.2021 01:45 14,6 C 87 % 1018,7 hPa 0,0 mm W 271 6,4 km/h (2 Bft)
12.06.2021 01:50 14,5 C 87 % 1018,7 hPa 0,0 mm W 273 6,4 km/h (2 Bft)
12.06.2021 01:55 14,4 C 87 % 1018,7 hPa 0,0 mm W 273 0,0 km/h (0 Bft)
12.06.2021 02:00 14,3 C 87 % 1018,8 hPa 0,0 mm W 273 4,8 km/h (1 Bft)
12.06.2021 02:05 14,3 C 87 % 1018,8 hPa 0,0 mm W 273 6,4 km/h (2 Bft)
12.06.2021 02:10 14,2 C 87 % 1018,8 hPa 0,0 mm W 273 4,8 km/h (1 Bft)
12.06.2021 02:15 14,1 C 87 % 1018,7 hPa 0,0 mm W 273 3,2 km/h (1 Bft)
12.06.2021 02:20 14,1 C 87 % 1018,8 hPa 0,0 mm W 273 3,2 km/h (1 Bft)
12.06.2021 02:25 14,0 C 87 % 1018,8 hPa 0,0 mm W 273 4,8 km/h (1 Bft)
12.06.2021 02:30 13,9 C 87 % 1018,8 hPa 0,0 mm W 273 4,8 km/h (1 Bft)
12.06.2021 02:35 13,9 C 87 % 1018,8 hPa 0,0 mm W 273 3,2 km/h (1 Bft)
12.06.2021 02:40 13,8 C 87 % 1018,7 hPa 0,0 mm W 273 3,2 km/h (1 Bft)
12.06.2021 02:45 13,8 C 87 % 1018,8 hPa 0,0 mm W 273 3,2 km/h (1 Bft)
12.06.2021 02:50 13,7 C 87 % 1018,7 hPa 0,0 mm W 273 1,6 km/h (1 Bft)
12.06.2021 02:55 13,6 C 87 % 1018,8 hPa 0,0 mm W 273 3,2 km/h (1 Bft)
12.06.2021 03:00 13,6 C 87 % 1018,7 hPa 0,0 mm W 273 3,2 km/h (1 Bft)
12.06.2021 03:05 13,5 C 87 % 1018,7 hPa 0,0 mm W 273 1,6 km/h (1 Bft)
12.06.2021 03:10 13,4 C 87 % 1018,7 hPa 0,0 mm W 273 4,8 km/h (1 Bft)
12.06.2021 03:15 13,4 C 87 % 1018,6 hPa 0,0 mm W 273 6,4 km/h (2 Bft)
12.06.2021 03:20 13,4 C 87 % 1018,6 hPa 0,0 mm W 273 1,6 km/h (1 Bft)
12.06.2021 03:25 13,3 C 87 % 1018,5 hPa 0,0 mm W 273 0,0 km/h (0 Bft)
12.06.2021 03:30 13,3 C 87 % 1018,5 hPa 0,0 mm W 273 1,6 km/h (1 Bft)
12.06.2021 03:35 13,3 C 87 % 1018,5 hPa 0,0 mm W 273 0,0 km/h (0 Bft)
12.06.2021 03:40 13,2 C 87 % 1018,5 hPa 0,0 mm W 273 0,0 km/h (0 Bft)
12.06.2021 03:45 13,2 C 87 % 1018,6 hPa 0,0 mm W 273 1,6 km/h (1 Bft)
12.06.2021 03:50 13,2 C 88 % 1018,5 hPa 0,0 mm W 273 0,0 km/h (0 Bft)
12.06.2021 03:55 13,2 C 87 % 1018,5 hPa 0,0 mm W 273 3,2 km/h (1 Bft)
12.06.2021 04:00 13,1 C 87 % 1018,5 hPa 0,0 mm W 273 0,0 km/h (0 Bft)
12.06.2021 04:05 13,1 C 87 % 1018,6 hPa 0,0 mm W 273 0,0 km/h (0 Bft)
12.06.2021 04:10 13,1 C 87 % 1018,6 hPa 0,0 mm W 273 3,2 km/h (1 Bft)
12.06.2021 04:15 13,1 C 88 % 1018,6 hPa 0,0 mm W 273 4,8 km/h (1 Bft)
12.06.2021 04:20 13,1 C 88 % 1018,6 hPa 0,0 mm W 273 4,8 km/h (1 Bft)
12.06.2021 04:25 13,1 C 88 % 1018,6 hPa 0,0 mm W 273 3,2 km/h (1 Bft)
12.06.2021 04:30 13,2 C 88 % 1018,6 hPa 0,0 mm W 273 3,2 km/h (1 Bft)
12.06.2021 04:35 13,2 C 88 % 1018,6 hPa 0,0 mm W 273 3,2 km/h (1 Bft)
12.06.2021 04:40 13,2 C 88 % 1018,5 hPa 0,0 mm W 273 0,0 km/h (0 Bft)
12.06.2021 04:45 13,2 C 88 % 1018,5 hPa 0,0 mm W 273 1,6 km/h (1 Bft)
12.06.2021 04:50 13,2 C 88 % 1018,5 hPa 0,0 mm W 273 3,2 km/h (1 Bft)
12.06.2021 04:55 13,2 C 88 % 1018,3 hPa 0,0 mm W 273 1,6 km/h (1 Bft)
12.06.2021 05:00 13,2 C 88 % 1018,3 hPa 0,0 mm W 273 0,0 km/h (0 Bft)
12.06.2021 05:05 13,3 C 88 % 1018,2 hPa 0,0 mm W 273 3,2 km/h (1 Bft)
12.06.2021 05:10 13,3 C 88 % 1018,3 hPa 0,0 mm W 273 4,8 km/h (1 Bft)
12.06.2021 05:15 13,3 C 89 % 1018,3 hPa 0,0 mm W 273 4,8 km/h (1 Bft)
12.06.2021 05:20 13,4 C 89 % 1018,3 hPa 0,0 mm W 273 4,8 km/h (1 Bft)
12.06.2021 05:25 13,4 C 89 % 1018,3 hPa 0,0 mm W 273 1,6 km/h (1 Bft)
12.06.2021 05:30 13,4 C 89 % 1018,3 hPa 0,0 mm W 273 0,0 km/h (0 Bft)
12.06.2021 05:35 13,4 C 89 % 1018,2 hPa 0,0 mm W 273 0,0 km/h (0 Bft)
12.06.2021 05:40 13,4 C 89 % 1018,3 hPa 0,0 mm W 273 0,0 km/h (0 Bft)
12.06.2021 05:45 13,5 C 89 % 1018,3 hPa 0,0 mm W 273 0,0 km/h (0 Bft)
12.06.2021 05:50 13,5 C 89 % 1018,3 hPa 0,0 mm W 273 0,0 km/h (0 Bft)
12.06.2021 05:55 13,6 C 89 % 1018,4 hPa 0,0 mm W 273 0,0 km/h (0 Bft)
12.06.2021 06:00 13,6 C 89 % 1018,4 hPa 0,0 mm W 273 1,6 km/h (1 Bft)
12.06.2021 06:05 13,7 C 89 % 1018,4 hPa 0,0 mm W 273 3,2 km/h (1 Bft)
12.06.2021 06:10 13,8 C 89 % 1018,4 hPa 0,0 mm W 273 3,2 km/h (1 Bft)
12.06.2021 06:15 13,9 C 89 % 1018,3 hPa 0,0 mm W 273 3,2 km/h (1 Bft)
12.06.2021 06:20 14,1 C 90 % 1018,4 hPa 0,0 mm W 273 4,8 km/h (1 Bft)
12.06.2021 06:25 14,1 C 90 % 1018,3 hPa 0,0 mm W 273 0,0 km/h (0 Bft)
12.06.2021 06:30 14,3 C 90 % 1018,3 hPa 0,0 mm W 273 0,0 km/h (0 Bft)
12.06.2021 06:35 14,4 C 90 % 1018,3 hPa 0,0 mm W 273 0,0 km/h (0 Bft)
12.06.2021 06:40 14,4 C 90 % 1018,4 hPa 0,0 mm W 273 0,0 km/h (0 Bft)
12.06.2021 06:45 14,5 C 90 % 1018,4 hPa 0,0 mm W 273 0,0 km/h (0 Bft)
12.06.2021 06:50 14,6 C 90 % 1018,4 hPa 0,0 mm W 273 0,0 km/h (0 Bft)
12.06.2021 06:55 14,8 C 90 % 1018,4 hPa 0,0 mm W 273 0,0 km/h (0 Bft)
12.06.2021 07:00 14,8 C 90 % 1018,4 hPa 0,0 mm W 273 1,6 km/h (1 Bft)
12.06.2021 07:05 14,8 C 90 % 1018,4 hPa 0,0 mm W 273 0,0 km/h (0 Bft)
12.06.2021 07:10 14,9 C 90 % 1018,3 hPa 0,0 mm W 273 0,0 km/h (0 Bft)
12.06.2021 07:15 15,0 C 90 % 1018,3 hPa 0,0 mm W 273 0,0 km/h (0 Bft)
12.06.2021 07:20 15,0 C 90 % 1018,3 hPa 0,0 mm W 273 0,0 km/h (0 Bft)
12.06.2021 07:25 15,1 C 90 % 1018,3 hPa 0,0 mm W 273 0,0 km/h (0 Bft)
12.06.2021 07:30 15,2 C 90 % 1018,3 hPa 0,0 mm W 273 0,0 km/h (0 Bft)
12.06.2021 07:35 15,4 C 90 % 1018,3 hPa 0,0 mm W 273 0,0 km/h (0 Bft)
12.06.2021 07:40 15,7 C 90 % 1018,3 hPa 0,0 mm W-NW 299 0,0 km/h (0 Bft)
12.06.2021 07:45 16,0 C 91 % 1018,3 hPa 0,0 mm W-NW 299 0,0 km/h (0 Bft)
12.06.2021 07:50 16,5 C 90 % 1018,4 hPa 0,0 mm W-NW 299 0,0 km/h (0 Bft)
12.06.2021 07:55 16,7 C 90 % 1018,4 hPa 0,0 mm W-NW 299 0,0 km/h (0 Bft)
12.06.2021 08:00 16,8 C 89 % 1018,5 hPa 0,0 mm W-NW 299 0,0 km/h (0 Bft)
12.06.2021 08:05 16,9 C 89 % 1018,5 hPa 0,0 mm W-NW 299 0,0 km/h (0 Bft)
12.06.2021 08:10 16,8 C 89 % 1018,5 hPa 0,0 mm W-NW 299 0,0 km/h (0 Bft)
12.06.2021 08:15 16,7 C 89 % 1018,5 hPa 0,0 mm W-NW 299 3,2 km/h (1 Bft)
12.06.2021 08:20 16,8 C 89 % 1018,6 hPa 0,0 mm W-NW 299 4,8 km/h (1 Bft)
12.06.2021 08:25 17,0 C 89 % 1018,6 hPa 0,0 mm W-NW 299 1,6 km/h (1 Bft)
12.06.2021 08:30 17,2 C 88 % 1018,6 hPa 0,0 mm W-NW 299 3,2 km/h (1 Bft)
12.06.2021 08:35 17,3 C 88 % 1018,6 hPa 0,0 mm W-NW 299 3,2 km/h (1 Bft)
12.06.2021 08:40 17,7 C 88 % 1018,6 hPa 0,0 mm W-NW 299 1,6 km/h (1 Bft)
12.06.2021 08:45 18,0 C 88 % 1018,5 hPa 0,0 mm W-NW 299 0,0 km/h (0 Bft)
12.06.2021 08:50 18,1 C 86 % 1018,5 hPa 0,0 mm W-NW 299 0,0 km/h (0 Bft)
12.06.2021 08:55 18,4 C 85 % 1018,6 hPa 0,0 mm W-NW 299 4,8 km/h (1 Bft)
12.06.2021 09:00 18,6 C 84 % 1018,5 hPa 0,0 mm W-NW 299 4,8 km/h (1 Bft)
12.06.2021 09:05 18,7 C 84 % 1018,5 hPa 0,0 mm W-NW 299 3,2 km/h (1 Bft)
12.06.2021 09:10 19,1 C 83 % 1018,5 hPa 0,0 mm W-NW 299 3,2 km/h (1 Bft)
12.06.2021 09:15 19,3 C 82 % 1018,6 hPa 0,0 mm W-NW 299 4,8 km/h (1 Bft)
12.06.2021 09:20 19,9 C 82 % 1018,5 hPa 0,0 mm W-NW 299 3,2 km/h (1 Bft)
12.06.2021 09:25 20,7 C 79 % 1018,4 hPa 0,0 mm W-NW 298 4,8 km/h (1 Bft)
12.06.2021 09:30 21,1 C 74 % 1018,4 hPa 0,0 mm W-NW 298 6,4 km/h (2 Bft)
12.06.2021 09:35 21,6 C 76 % 1018,3 hPa 0,0 mm W-NW 298 4,8 km/h (1 Bft)
12.06.2021 09:40 21,4 C 76 % 1018,3 hPa 0,0 mm W-NW 297 3,2 km/h (1 Bft)
12.06.2021 09:45 22,3 C 77 % 1018,2 hPa 0,0 mm NW 315 3,2 km/h (1 Bft)
12.06.2021 09:50 22,8 C 73 % 1018,3 hPa 0,0 mm W-NW 302 4,8 km/h (1 Bft)
12.06.2021 09:55 23,2 C 68 % 1018,2 hPa 0,0 mm W 277 8,0 km/h (2 Bft)
12.06.2021 10:00 23,6 C 65 % 1018,2 hPa 0,0 mm W 270 8,0 km/h (2 Bft)
12.06.2021 10:05 23,2 C 64 % 1018,3 hPa 0,0 mm W 259 11,3 km/h (2 Bft)
12.06.2021 10:10 23,3 C 60 % 1018,2 hPa 0,0 mm W 264 16,1 km/h (3 Bft)
12.06.2021 10:15 24,1 C 63 % 1018,1 hPa 0,0 mm SW 223 11,3 km/h (2 Bft)
12.06.2021 10:20 24,3 C 58 % 1018,1 hPa 0,0 mm W-SW 246 14,5 km/h (3 Bft)
12.06.2021 10:25 24,4 C 56 % 1018,2 hPa 0,0 mm W-NW 283 16,1 km/h (3 Bft)
12.06.2021 10:30 24,6 C 57 % 1018,1 hPa 0,0 mm W-NW 291 14,5 km/h (3 Bft)
12.06.2021 10:35 24,8 C 55 % 1018,0 hPa 0,0 mm W 276 12,9 km/h (3 Bft)
12.06.2021 10:40 24,9 C 60 % 1018,1 hPa 0,0 mm W 259 14,5 km/h (3 Bft)
12.06.2021 10:45 24,9 C 51 % 1018,2 hPa 0,0 mm W-SW 248 16,1 km/h (3 Bft)
12.06.2021 10:50 24,8 C 57 % 1018,1 hPa 0,0 mm W 277 11,3 km/h (2 Bft)
12.06.2021 10:55 25,0 C 55 % 1018,1 hPa 0,0 mm W-SW 247 16,1 km/h (3 Bft)
12.06.2021 11:00 24,5 C 56 % 1018,1 hPa 0,0 mm W 271 14,5 km/h (3 Bft)
12.06.2021 11:05 24,2 C 56 % 1018,1 hPa 0,0 mm W 263 16,1 km/h (3 Bft)
12.06.2021 11:10 23,9 C 58 % 1018,1 hPa 0,0 mm W-SW 257 16,1 km/h (3 Bft)
12.06.2021 11:15 23,8 C 59 % 1018,1 hPa 0,0 mm W 263 12,9 km/h (3 Bft)
12.06.2021 11:20 23,6 C 59 % 1018,1 hPa 0,0 mm W 267 14,5 km/h (3 Bft)
12.06.2021 11:25 23,8 C 60 % 1018,1 hPa 0,0 mm W 276 12,9 km/h (3 Bft)
12.06.2021 11:30 24,1 C 58 % 1018,1 hPa 0,0 mm W 263 9,7 km/h (2 Bft)
12.06.2021 11:35 24,4 C 60 % 1018,2 hPa 0,0 mm W-SW 257 9,7 km/h (2 Bft)
12.06.2021 11:40 24,3 C 56 % 1018,2 hPa 0,0 mm W 261 16,1 km/h (3 Bft)
12.06.2021 11:45 24,8 C 58 % 1018,1 hPa 0,0 mm W 281 12,9 km/h (3 Bft)
12.06.2021 11:50 25,1 C 56 % 1018,1 hPa 0,0 mm W 278 16,1 km/h (3 Bft)
12.06.2021 11:55 25,3 C 56 % 1018,1 hPa 0,0 mm W 268 16,1 km/h (3 Bft)
12.06.2021 12:00 25,0 C 54 % 1018,0 hPa 0,0 mm W-SW 254 14,5 km/h (3 Bft)
12.06.2021 12:05 25,1 C 55 % 1017,9 hPa 0,0 mm W 260 19,3 km/h (3 Bft)
12.06.2021 12:10 25,4 C 57 % 1017,9 hPa 0,0 mm W-SW 258 19,3 km/h (3 Bft)
12.06.2021 12:15 25,3 C 56 % 1017,9 hPa 0,0 mm W 264 14,5 km/h (3 Bft)
12.06.2021 12:20 24,7 C 60 % 1017,8 hPa 0,0 mm W 279 11,3 km/h (2 Bft)
12.06.2021 12:25 25,2 C 60 % 1017,8 hPa 0,0 mm W 261 8,0 km/h (2 Bft)
12.06.2021 12:30 25,8 C 57 % 1017,9 hPa 0,0 mm W 274 17,7 km/h (3 Bft)
12.06.2021 12:35 26,0 C 54 % 1017,8 hPa 0,0 mm W-SW 255 19,3 km/h (3 Bft)
12.06.2021 12:40 26,2 C 53 % 1017,8 hPa 0,0 mm W 271 16,1 km/h (3 Bft)
12.06.2021 12:45 26,0 C 53 % 1017,7 hPa 0,0 mm W 273 17,7 km/h (3 Bft)
12.06.2021 12:50 25,2 C 53 % 1017,8 hPa 0,0 mm W 270 14,5 km/h (3 Bft)
12.06.2021 12:55 24,7 C 55 % 1017,7 hPa 0,0 mm W 269 14,5 km/h (3 Bft)
12.06.2021 13:00 24,4 C 56 % 1017,6 hPa 0,0 mm W 261 11,3 km/h (2 Bft)
12.06.2021 13:05 24,9 C 58 % 1017,5 hPa 0,0 mm W-SW 256 12,9 km/h (3 Bft)
12.06.2021 13:10 25,9 C 54 % 1017,5 hPa 0,0 mm W 261 9,7 km/h (2 Bft)
12.06.2021 13:15 25,8 C 54 % 1017,5 hPa 0,0 mm W 268 11,3 km/h (2 Bft)
12.06.2021 13:20 25,2 C 49 % 1017,3 hPa 0,0 mm W-NW 283 17,7 km/h (3 Bft)
12.06.2021 13:25 25,1 C 53 % 1017,2 hPa 0,0 mm W-NW 289 16,1 km/h (3 Bft)
12.06.2021 13:30 25,8 C 53 % 1017,2 hPa 0,0 mm W 275 17,7 km/h (3 Bft)
12.06.2021 13:35 26,5 C 50 % 1017,1 hPa 0,0 mm W-SW 252 12,9 km/h (3 Bft)
12.06.2021 13:40 26,3 C 50 % 1017,1 hPa 0,0 mm W-NW 293 16,1 km/h (3 Bft)
12.06.2021 13:45 26,6 C 50 % 1017,1 hPa 0,0 mm W-SW 258 20,9 km/h (4 Bft)
12.06.2021 13:50 26,7 C 47 % 1017,1 hPa 0,0 mm W-SW 246 20,9 km/h (4 Bft)
12.06.2021 13:55 26,0 C 50 % 1017,0 hPa 0,0 mm W 267 24,1 km/h (4 Bft)
12.06.2021 14:00 26,4 C 48 % 1017,0 hPa 0,0 mm W 281 20,9 km/h (4 Bft)
12.06.2021 14:05 26,6 C 50 % 1016,9 hPa 0,0 mm W 259 20,9 km/h (4 Bft)
12.06.2021 14:10 26,4 C 50 % 1016,9 hPa 0,0 mm W 276 19,3 km/h (3 Bft)
12.06.2021 14:15 26,1 C 49 % 1016,8 hPa 0,0 mm W-SW 257 17,7 km/h (3 Bft)
12.06.2021 14:20 25,7 C 52 % 1016,8 hPa 0,0 mm W 274 20,9 km/h (4 Bft)
12.06.2021 14:25 25,9 C 49 % 1016,8 hPa 0,0 mm W 267 19,3 km/h (3 Bft)
12.06.2021 14:30 26,4 C 52 % 1016,8 hPa 0,0 mm W 280 20,9 km/h (4 Bft)
12.06.2021 14:35 26,8 C 54 % 1016,7 hPa 0,0 mm W 273 14,5 km/h (3 Bft)
12.06.2021 14:40 26,5 C 54 % 1016,7 hPa 0,0 mm W 261 24,1 km/h (4 Bft)
12.06.2021 14:45 26,7 C 50 % 1016,7 hPa 0,0 mm W-SW 249 19,3 km/h (3 Bft)
12.06.2021 14:50 26,5 C 49 % 1016,6 hPa 0,0 mm W 271 24,1 km/h (4 Bft)
12.06.2021 14:55 26,4 C 49 % 1016,5 hPa 0,0 mm W-SW 254 25,7 km/h (4 Bft)
12.06.2021 15:00 26,8 C 50 % 1016,5 hPa 0,0 mm W 277 22,5 km/h (4 Bft)
12.06.2021 15:05 26,8 C 50 % 1016,4 hPa 0,0 mm W-SW 254 20,9 km/h (4 Bft)
12.06.2021 15:10 26,7 C 50 % 1016,4 hPa 0,0 mm W 259 17,7 km/h (3 Bft)
12.06.2021 15:15 27,1 C 47 % 1016,4 hPa 0,0 mm W 275 24,1 km/h (4 Bft)
12.06.2021 15:20 27,2 C 46 % 1016,3 hPa 0,0 mm W 281 22,5 km/h (4 Bft)
12.06.2021 15:25 26,7 C 49 % 1016,3 hPa 0,0 mm W-SW 250 14,5 km/h (3 Bft)
12.06.2021 15:30 26,5 C 52 % 1016,3 hPa 0,0 mm W 269 19,3 km/h (3 Bft)
12.06.2021 15:35 26,9 C 50 % 1016,2 hPa 0,0 mm W 263 20,9 km/h (4 Bft)
12.06.2021 15:40 26,7 C 49 % 1016,2 hPa 0,0 mm W 259 22,5 km/h (4 Bft)
12.06.2021 15:45 26,5 C 52 % 1016,2 hPa 0,0 mm W 259 17,7 km/h (3 Bft)
12.06.2021 15:50 26,7 C 49 % 1016,1 hPa 0,0 mm W 261 19,3 km/h (3 Bft)
12.06.2021 15:55 26,6 C 48 % 1016,1 hPa 0,0 mm W 275 24,1 km/h (4 Bft)
12.06.2021 16:00 26,6 C 49 % 1016,0 hPa 0,0 mm W-SW 257 19,3 km/h (3 Bft)
12.06.2021 16:05 26,8 C 48 % 1016,1 hPa 0,0 mm W 266 22,5 km/h (4 Bft)
12.06.2021 16:10 26,7 C 50 % 1016,1 hPa 0,0 mm W-SW 252 25,7 km/h (4 Bft)
12.06.2021 16:15 26,9 C 49 % 1016,0 hPa 0,0 mm W 264 24,1 km/h (4 Bft)
12.06.2021 16:20 26,9 C 48 % 1015,9 hPa 0,0 mm W 268 22,5 km/h (4 Bft)
12.06.2021 16:25 26,7 C 47 % 1015,8 hPa 0,0 mm W 269 22,5 km/h (4 Bft)
12.06.2021 16:30 26,5 C 49 % 1015,9 hPa 0,0 mm W 261 25,7 km/h (4 Bft)
12.06.2021 16:35 26,2 C 49 % 1015,9 hPa 0,0 mm W-SW 248 17,7 km/h (3 Bft)
12.06.2021 16:40 26,0 C 51 % 1015,9 hPa 0,0 mm W-NW 284 16,1 km/h (3 Bft)
12.06.2021 16:45 26,0 C 52 % 1015,9 hPa 0,0 mm W 263 16,1 km/h (3 Bft)
12.06.2021 16:50 26,1 C 53 % 1015,8 hPa 0,0 mm W 278 12,9 km/h (3 Bft)
12.06.2021 16:55 26,4 C 50 % 1015,8 hPa 0,0 mm SW 233 19,3 km/h (3 Bft)
12.06.2021 17:00 26,3 C 50 % 1015,7 hPa 0,0 mm W 273 20,9 km/h (4 Bft)
12.06.2021 17:05 26,2 C 51 % 1015,7 hPa 0,0 mm W 266 19,3 km/h (3 Bft)
12.06.2021 17:10 25,8 C 50 % 1015,7 hPa 0,0 mm W 281 24,1 km/h (4 Bft)
12.06.2021 17:15 25,7 C 51 % 1015,7 hPa 0,0 mm W 271 19,3 km/h (3 Bft)
12.06.2021 17:20 25,6 C 50 % 1015,7 hPa 0,0 mm W 262 19,3 km/h (3 Bft)
12.06.2021 17:25 25,6 C 51 % 1015,6 hPa 0,0 mm W 263 24,1 km/h (4 Bft)
12.06.2021 17:30 25,6 C 51 % 1015,6 hPa 0,0 mm W 259 17,7 km/h (3 Bft)
12.06.2021 17:35 25,6 C 51 % 1015,5 hPa 0,0 mm W-SW 241 16,1 km/h (3 Bft)
12.06.2021 17:40 25,5 C 52 % 1015,5 hPa 0,0 mm W 276 22,5 km/h (4 Bft)
12.06.2021 17:45 25,4 C 50 % 1015,5 hPa 0,0 mm W 263 22,5 km/h (4 Bft)
12.06.2021 17:50 25,4 C 50 % 1015,4 hPa 0,0 mm W-NW 292 19,3 km/h (3 Bft)
12.06.2021 17:55 25,4 C 50 % 1015,4 hPa 0,0 mm W 279 17,7 km/h (3 Bft)
12.06.2021 18:00 25,6 C 51 % 1015,4 hPa 0,0 mm W 269 22,5 km/h (4 Bft)
12.06.2021 18:05 25,7 C 50 % 1015,4 hPa 0,0 mm W 263 16,1 km/h (3 Bft)
12.06.2021 18:10 25,7 C 50 % 1015,5 hPa 0,0 mm W 273 14,5 km/h (3 Bft)
12.06.2021 18:15 25,6 C 52 % 1015,5 hPa 0,0 mm W 263 14,5 km/h (3 Bft)
12.06.2021 18:20 25,4 C 52 % 1015,5 hPa 0,0 mm W-NW 290 14,5 km/h (3 Bft)
12.06.2021 18:25 25,2 C 53 % 1015,5 hPa 0,0 mm W 266 14,5 km/h (3 Bft)
12.06.2021 18:30 25,2 C 53 % 1015,4 hPa 0,0 mm W 274 12,9 km/h (3 Bft)
12.06.2021 18:35 25,0 C 55 % 1015,4 hPa 0,0 mm W 265 11,3 km/h (2 Bft)
12.06.2021 18:40 24,9 C 56 % 1015,4 hPa 0,0 mm W-NW 286 11,3 km/h (2 Bft)
12.06.2021 18:45 24,8 C 56 % 1015,4 hPa 0,0 mm W 278 9,7 km/h (2 Bft)
12.06.2021 18:50 24,8 C 57 % 1015,3 hPa 0,0 mm W 268 9,7 km/h (2 Bft)
12.06.2021 18:55 24,7 C 57 % 1015,4 hPa 0,0 mm W-NW 298 11,3 km/h (2 Bft)
12.06.2021 19:00 24,6 C 56 % 1015,6 hPa 0,0 mm W-NW 283 14,5 km/h (3 Bft)
12.06.2021 19:05 24,6 C 57 % 1015,6 hPa 0,0 mm W 259 14,5 km/h (3 Bft)
12.06.2021 19:10 24,4 C 57 % 1015,6 hPa 0,0 mm W 266 8,0 km/h (2 Bft)
12.06.2021 19:15 24,4 C 56 % 1015,7 hPa 0,0 mm W 262 24,1 km/h (4 Bft)
12.06.2021 19:20 24,4 C 54 % 1015,8 hPa 0,0 mm W 263 24,1 km/h (4 Bft)
12.06.2021 19:25 24,4 C 52 % 1015,8 hPa 0,0 mm W-SW 247 27,4 km/h (4 Bft)
12.06.2021 19:30 24,3 C 51 % 1015,9 hPa 0,0 mm W 275 20,9 km/h (4 Bft)
12.06.2021 19:35 24,3 C 52 % 1015,9 hPa 0,0 mm W-SW 243 14,5 km/h (3 Bft)
12.06.2021 19:40 24,2 C 51 % 1016,1 hPa 0,0 mm W-SW 253 24,1 km/h (4 Bft)
12.06.2021 19:45 24,2 C 52 % 1016,4 hPa 0,0 mm W 273 20,9 km/h (4 Bft)
12.06.2021 19:50 24,1 C 56 % 1016,6 hPa 0,0 mm W-NW 284 29,0 km/h (5 Bft)
12.06.2021 19:55 23,9 C 57 % 1016,7 hPa 0,0 mm W-SW 254 24,1 km/h (4 Bft)
12.06.2021 20:00 23,8 C 58 % 1016,6 hPa 0,0 mm W 271 19,3 km/h (3 Bft)
12.06.2021 20:05 23,6 C 58 % 1016,4 hPa 0,0 mm W 266 8,0 km/h (2 Bft)
12.06.2021 20:10 23,4 C 59 % 1016,4 hPa 0,0 mm W 269 11,3 km/h (2 Bft)
12.06.2021 20:15 23,3 C 60 % 1016,4 hPa 0,0 mm W 268 8,0 km/h (2 Bft)
12.06.2021 20:20 23,1 C 60 % 1016,4 hPa 0,0 mm W 268 8,0 km/h (2 Bft)
12.06.2021 20:25 22,9 C 61 % 1016,4 hPa 0,0 mm W 270 9,7 km/h (2 Bft)
12.06.2021 20:30 22,7 C 61 % 1016,4 hPa 0,0 mm W 275 11,3 km/h (2 Bft)
12.06.2021 20:35 22,6 C 61 % 1016,3 hPa 0,0 mm W 275 4,8 km/h (1 Bft)
12.06.2021 20:40 22,4 C 61 % 1016,4 hPa 0,0 mm W 275 4,8 km/h (1 Bft)
12.06.2021 20:45 22,3 C 61 % 1016,5 hPa 0,0 mm W 275 6,4 km/h (2 Bft)
12.06.2021 20:50 22,1 C 61 % 1016,5 hPa 0,0 mm W 275 6,4 km/h (2 Bft)
12.06.2021 20:55 22,0 C 61 % 1016,5 hPa 0,0 mm W 275 4,8 km/h (1 Bft)
12.06.2021 21:00 21,9 C 61 % 1016,6 hPa 0,0 mm W 275 4,8 km/h (1 Bft)
12.06.2021 21:05 21,8 C 62 % 1016,5 hPa 0,0 mm W 275 6,4 km/h (2 Bft)
12.06.2021 21:10 21,7 C 62 % 1016,5 hPa 0,0 mm W 276 6,4 km/h (2 Bft)
12.06.2021 21:15 21,6 C 62 % 1016,6 hPa 0,0 mm W 281 8,0 km/h (2 Bft)
12.06.2021 21:20 21,5 C 62 % 1016,7 hPa 0,0 mm W 270 9,7 km/h (2 Bft)
12.06.2021 21:25 21,4 C 63 % 1016,9 hPa 0,0 mm W 274 8,0 km/h (2 Bft)
12.06.2021 21:30 21,4 C 63 % 1016,9 hPa 0,0 mm W 273 9,7 km/h (2 Bft)
12.06.2021 21:35 21,3 C 64 % 1017,1 hPa 0,0 mm W 270 9,7 km/h (2 Bft)
12.06.2021 21:40 21,3 C 64 % 1017,1 hPa 0,0 mm W 265 8,0 km/h (2 Bft)
12.06.2021 21:45 21,2 C 64 % 1017,2 hPa 0,0 mm W-SW 257 11,3 km/h (2 Bft)
12.06.2021 21:50 21,2 C 65 % 1017,3 hPa 0,0 mm W 269 16,1 km/h (3 Bft)
12.06.2021 21:55 21,2 C 65 % 1017,3 hPa 0,0 mm W 267 9,7 km/h (2 Bft)
12.06.2021 22:00 21,2 C 65 % 1017,4 hPa 0,0 mm W 271 9,7 km/h (2 Bft)
12.06.2021 22:05 21,1 C 66 % 1017,4 hPa 0,0 mm W 262 9,7 km/h (2 Bft)
12.06.2021 22:10 21,1 C 66 % 1017,5 hPa 0,0 mm W 273 8,0 km/h (2 Bft)
12.06.2021 22:15 21,0 C 66 % 1017,4 hPa 0,0 mm W 273 4,8 km/h (1 Bft)
12.06.2021 22:20 21,0 C 66 % 1017,5 hPa 0,0 mm W 273 4,8 km/h (1 Bft)
12.06.2021 22:25 20,9 C 67 % 1017,6 hPa 0,0 mm W 273 4,8 km/h (1 Bft)
12.06.2021 22:30 20,9 C 67 % 1017,7 hPa 0,0 mm W 273 1,6 km/h (1 Bft)
12.06.2021 22:35 20,8 C 67 % 1017,7 hPa 0,0 mm W 273 1,6 km/h (1 Bft)
12.06.2021 22:40 20,8 C 67 % 1017,7 hPa 0,0 mm W 273 1,6 km/h (1 Bft)
12.06.2021 22:45 20,7 C 67 % 1017,8 hPa 0,0 mm W 273 1,6 km/h (1 Bft)
12.06.2021 22:50 20,7 C 68 % 1017,9 hPa 0,0 mm W 273 1,6 km/h (1 Bft)
12.06.2021 22:55 20,6 C 68 % 1017,9 hPa 0,0 mm W 273 4,8 km/h (1 Bft)
12.06.2021 23:00 20,6 C 69 % 1018,0 hPa 0,0 mm W 264 8,0 km/h (2 Bft)
12.06.2021 23:05 20,4 C 69 % 1018,1 hPa 0,0 mm W 279 6,4 km/h (2 Bft)
12.06.2021 23:10 20,4 C 69 % 1018,2 hPa 0,0 mm W 279 4,8 km/h (1 Bft)
12.06.2021 23:15 20,3 C 70 % 1018,2 hPa 0,0 mm W 278 9,7 km/h (2 Bft)
12.06.2021 23:20 20,3 C 70 % 1018,3 hPa 0,0 mm W 266 8,0 km/h (2 Bft)
12.06.2021 23:25 20,3 C 70 % 1018,4 hPa 0,0 mm W 273 8,0 km/h (2 Bft)
12.06.2021 23:30 20,3 C 71 % 1018,4 hPa 0,0 mm W 273 4,8 km/h (1 Bft)
12.06.2021 23:35 20,3 C 71 % 1018,5 hPa 0,0 mm W 273 8,0 km/h (2 Bft)
12.06.2021 23:40 20,3 C 71 % 1018,5 hPa 0,0 mm W-SW 256 14,5 km/h (3 Bft)
12.06.2021 23:45 20,3 C 71 % 1018,6 hPa 0,0 mm W 281 11,3 km/h (2 Bft)
12.06.2021 23:50 20,3 C 71 % 1018,7 hPa 0,0 mm W 261 16,1 km/h (3 Bft)
12.06.2021 23:55 20,3 C 71 % 1018,7 hPa 0,0 mm W 273 16,1 km/h (3 Bft)
_ Min-Zeit 03:55 15:20 18:50 - - - 01:55
Minimum _ 13,1 C 46 % 1015,3 hPa - - - 0,0 km/h (0 Bft)
_ Max-Zeit 15:20 07:45 00:25 00:15 - - 19:50
Maximum _ 27,3 C 91 % 1019,1 hPa 0,2 mm - - 29,0 km/h
W (5 Bft)
Durchschnitt _ 20,5 C 69 % 1017,6 hPa #0,2 mm W - 9,8 km/h (2 Bft)